NCR221 YPED-YMML

Flight info

Callsign NCR221
Flight time 1h 45m
Altitude 31000
Route EDN DCT BENDO Y12 ARBEY H119 ML
Aircraft B744/H-SDE3FGHIM1M2RWXY/LB1

Departure

Time 2026-05-04 08:50
Airport RAAF Base Edinburgh (YPED)

Arrival

Time 2026-05-04 10:36
Airport Melbourne Airport (YMML)
Time Latitude Longitude Altitude Speed Heading
2026-05-04 08:31 -34.71395 138.62199 60 ft 0 kts 131°
2026-05-04 08:42 -34.71397 138.62202 58 ft 2 kts 129°
2026-05-04 08:42 -34.71395 138.62211 52 ft 3 kts 96°
2026-05-04 08:42 -34.71388 138.62223 57 ft 3 kts 64°
2026-05-04 08:43 -34.71379 138.62232 55 ft 1 kts 42°
2026-05-04 08:43 -34.71345 138.62269 52 ft 1 kts 222°
2026-05-04 08:43 -34.71345 138.62270 52 ft 0 kts 222°
2026-05-04 08:46 -34.71422 138.62159 52 ft 12 kts 234°
2026-05-04 08:46 -34.71449 138.62059 57 ft 13 kts 269°
2026-05-04 08:46 -34.71467 138.61951 52 ft 13 kts 243°
2026-05-04 08:46 -34.71527 138.61880 48 ft 14 kts 221°
2026-05-04 08:47 -34.71610 138.61789 50 ft 18 kts 223°
2026-05-04 08:47 -34.71709 138.61677 51 ft 20 kts 223°
2026-05-04 08:47 -34.71751 138.61555 56 ft 13 kts 271°
2026-05-04 08:47 -34.71742 138.61460 53 ft 11 kts 278°
2026-05-04 08:48 -34.71722 138.61386 51 ft 8 kts 304°
2026-05-04 08:48 -34.71692 138.61361 50 ft 3 kts 342°
2026-05-04 08:48 -34.71630 138.61364 51 ft 20 kts
2026-05-04 08:48 -34.71192 138.61444 62 ft 110 kts
2026-05-04 08:49 -34.70157 138.61627 102 ft 186 kts
2026-05-04 08:50 -34.62554 138.60237 2205 ft 184 kts 343°
2026-05-04 08:50 -34.61284 138.59908 3072 ft 188 kts 343°
2026-05-04 08:51 -34.60033 138.59588 4071 ft 187 kts 343°
2026-05-04 08:51 -34.58704 138.59610 4924 ft 202 kts 21°
2026-05-04 08:51 -34.57623 138.60666 5882 ft 203 kts 61°
2026-05-04 08:51 -34.57226 138.62362 6565 ft 221 kts 98°
2026-05-04 08:52 -34.57722 138.64173 7145 ft 242 kts 130°
2026-05-04 08:52 -34.59011 138.65564 7235 ft 251 kts 160°
2026-05-04 08:52 -34.60669 138.65956 7251 ft 243 kts 191°
2026-05-04 08:52 -34.62226 138.65262 7247 ft 238 kts 215°
2026-05-04 08:53 -34.63597 138.64125 7192 ft 239 kts 216°
2026-05-04 08:54 -34.73184 138.67334 6822 ft 264 kts 120°
2026-05-04 08:55 -34.74027 138.69317 6816 ft 264 kts 121°
2026-05-04 08:55 -34.74894 138.71284 6816 ft 264 kts 122°
2026-05-04 08:55 -34.75764 138.73246 6819 ft 264 kts 121°
2026-05-04 08:55 -34.76631 138.75215 6823 ft 264 kts 121°
2026-05-04 08:57 -34.82394 138.88365 6817 ft 265 kts 121°
2026-05-04 09:01 -34.94499 139.16145 6817 ft 265 kts 122°
2026-05-04 09:01 -34.95359 139.18128 6813 ft 264 kts 122°
2026-05-04 09:01 -34.96218 139.20110 6813 ft 265 kts 122°
2026-05-04 09:01 -34.97078 139.22092 6807 ft 264 kts 122°
2026-05-04 09:02 -34.97936 139.24075 6808 ft 265 kts 122°
2026-05-04 09:02 -34.98796 139.26061 6812 ft 265 kts 122°
2026-05-04 09:02 -34.99654 139.28046 6816 ft 265 kts 122°
2026-05-04 09:02 -35.00512 139.30031 6810 ft 265 kts 122°
2026-05-04 09:03 -35.01371 139.32018 6813 ft 265 kts 122°
2026-05-04 09:03 -35.02229 139.34005 6812 ft 265 kts 122°
2026-05-04 09:03 -35.03089 139.35996 6806 ft 265 kts 122°
2026-05-04 09:03 -35.03946 139.37985 6812 ft 265 kts 122°
2026-05-04 09:04 -35.04804 139.39976 6810 ft 265 kts 122°
2026-05-04 09:04 -35.05650 139.41939 6803 ft 265 kts 122°
2026-05-04 09:04 -35.06519 139.43957 6807 ft 265 kts 122°
2026-05-04 09:04 -35.07364 139.45921 6804 ft 265 kts 122°
2026-05-04 09:05 -35.08221 139.47915 6803 ft 265 kts 122°
2026-05-04 09:05 -35.09078 139.49909 6811 ft 265 kts 122°
2026-05-04 09:05 -35.09936 139.51905 6805 ft 265 kts 122°
2026-05-04 09:05 -35.10793 139.53901 6806 ft 265 kts 122°
2026-05-04 09:06 -35.11648 139.55894 6806 ft 265 kts 122°
2026-05-04 09:07 -35.17642 139.69899 6804 ft 266 kts 122°
2026-05-04 09:08 -35.18499 139.71904 6799 ft 267 kts 122°
2026-05-04 09:08 -35.19356 139.73914 6803 ft 266 kts 122°
2026-05-04 09:08 -35.20212 139.75921 6802 ft 266 kts 122°
2026-05-04 09:08 -35.21066 139.77924 6803 ft 266 kts 122°
2026-05-04 09:09 -35.21918 139.79926 6801 ft 265 kts 122°
2026-05-04 09:09 -35.22771 139.81929 6804 ft 265 kts 122°
2026-05-04 09:09 -35.23624 139.83933 6801 ft 266 kts 122°
2026-05-04 09:09 -35.24476 139.85936 6801 ft 266 kts 122°
2026-05-04 09:10 -35.25328 139.87943 6805 ft 266 kts 122°
2026-05-04 09:10 -35.26180 139.89950 6795 ft 266 kts 122°
2026-05-04 09:10 -35.27034 139.91960 6796 ft 266 kts 122°
2026-05-04 09:10 -35.27887 139.93971 6799 ft 266 kts 122°
2026-05-04 09:11 -35.28739 139.95982 6796 ft 266 kts 122°
2026-05-04 09:11 -35.29593 139.97996 6799 ft 266 kts 122°
2026-05-04 09:11 -35.30446 140.00010 6794 ft 266 kts 122°
2026-05-04 09:11 -35.31296 140.02021 6797 ft 266 kts 122°
2026-05-04 09:12 -35.32148 140.04033 6795 ft 266 kts 122°
2026-05-04 09:12 -35.32999 140.06048 6796 ft 266 kts 122°
2026-05-04 09:14 -35.38964 140.20193 6793 ft 267 kts 122°
2026-05-04 09:14 -35.39813 140.22213 6795 ft 267 kts 122°
2026-05-04 09:14 -35.40652 140.24209 6795 ft 267 kts 122°
2026-05-04 09:14 -35.41502 140.26231 6795 ft 267 kts 122°
2026-05-04 09:15 -35.42351 140.28254 6793 ft 267 kts 122°
2026-05-04 09:15 -35.43199 140.30274 6795 ft 267 kts 122°
2026-05-04 09:15 -35.44047 140.32297 6792 ft 267 kts 122°
2026-05-04 09:15 -35.44895 140.34321 6789 ft 267 kts 122°
2026-05-04 09:17 -35.51656 140.50496 6788 ft 266 kts 122°
2026-05-04 09:18 -35.52497 140.52515 6784 ft 266 kts 122°
2026-05-04 09:18 -35.53338 140.54535 6784 ft 265 kts 122°
2026-05-04 09:18 -35.54178 140.56552 6788 ft 266 kts 122°
2026-05-04 09:18 -35.55018 140.58572 6789 ft 266 kts 122°
2026-05-04 09:19 -35.55858 140.60591 6788 ft 266 kts 122°
2026-05-04 09:19 -35.56699 140.62614 6787 ft 266 kts 122°
2026-05-04 09:19 -35.57539 140.64637 6789 ft 266 kts 122°
2026-05-04 09:19 -35.58379 140.66661 6787 ft 266 kts 122°
2026-05-04 09:20 -35.59219 140.68686 6787 ft 266 kts 122°
2026-05-04 09:20 -35.60058 140.70711 6785 ft 266 kts 122°
2026-05-04 09:20 -35.60897 140.72735 6787 ft 266 kts 122°
2026-05-04 09:20 -35.61736 140.74762 6790 ft 266 kts 122°
2026-05-04 09:21 -35.62575 140.76790 6783 ft 266 kts 122°
2026-05-04 09:21 -35.63414 140.78820 6786 ft 266 kts 122°
2026-05-04 09:21 -35.64254 140.80851 6785 ft 267 kts 122°
2026-05-04 09:21 -35.65093 140.82884 6781 ft 267 kts 122°
2026-05-04 09:22 -35.65922 140.84890 6783 ft 267 kts 122°
2026-05-04 09:22 -35.66761 140.86924 6783 ft 267 kts 122°
2026-05-04 09:22 -35.67599 140.88959 6782 ft 267 kts 122°
2026-05-04 09:22 -35.68437 140.90993 6779 ft 267 kts 122°
2026-05-04 09:23 -35.69274 140.93027 6782 ft 266 kts 122°
2026-05-04 09:23 -35.70111 140.95060 6782 ft 266 kts 122°
2026-05-04 09:23 -35.70948 140.97095 6782 ft 266 kts 122°
2026-05-04 09:23 -35.71784 140.99129 6764 ft 267 kts 122°
2026-05-04 09:25 -35.77627 141.13382 6763 ft 266 kts 122°
2026-05-04 09:25 -35.78460 141.15420 6763 ft 267 kts 122°
2026-05-04 09:26 -35.79294 141.17462 6757 ft 267 kts 122°
2026-05-04 09:26 -35.80127 141.19500 6761 ft 267 kts 122°
2026-05-04 09:26 -35.80959 141.21539 6760 ft 266 kts 122°
2026-05-04 09:26 -35.81790 141.23576 6760 ft 266 kts 122°
2026-05-04 09:27 -35.82622 141.25615 6757 ft 266 kts 122°
2026-05-04 09:27 -35.83452 141.27654 6760 ft 267 kts 122°
2026-05-04 09:27 -35.84283 141.29694 6758 ft 266 kts 122°
2026-05-04 09:27 -35.85114 141.31738 6759 ft 267 kts 122°
2026-05-04 09:28 -35.85947 141.33785 6756 ft 267 kts 122°
2026-05-04 09:28 -35.86778 141.35832 6759 ft 267 kts 122°
2026-05-04 09:28 -35.87610 141.37880 6759 ft 267 kts 122°
2026-05-04 09:28 -35.88442 141.39930 6757 ft 267 kts 122°
2026-05-04 09:29 -35.89263 141.41953 6759 ft 267 kts 122°
2026-05-04 09:29 -35.90094 141.44004 6760 ft 267 kts 122°
2026-05-04 09:29 -35.90924 141.46052 6759 ft 267 kts 122°
2026-05-04 09:29 -35.91753 141.48101 6757 ft 267 kts 122°
2026-05-04 09:30 -35.92583 141.50151 6762 ft 267 kts 122°
2026-05-04 09:30 -35.93413 141.52204 6759 ft 267 kts 122°
2026-05-04 09:30 -35.94242 141.54256 6756 ft 268 kts 122°
2026-05-04 09:30 -35.95073 141.56314 6755 ft 267 kts 122°
2026-05-04 09:31 -35.95901 141.58366 6752 ft 267 kts 122°
2026-05-04 09:31 -35.96730 141.60421 6753 ft 267 kts 122°
2026-05-04 09:31 -35.97559 141.62477 6751 ft 267 kts 122°
2026-05-04 09:31 -35.98387 141.64533 6752 ft 267 kts 122°
2026-05-04 09:32 -35.99214 141.66587 6752 ft 267 kts 122°
2026-05-04 09:32 -36.00040 141.68640 6754 ft 266 kts 122°
2026-05-04 09:34 -36.05806 141.83011 6751 ft 267 kts 121°
2026-05-04 09:34 -36.06629 141.85066 6751 ft 267 kts 121°
2026-05-04 09:34 -36.07450 141.87118 6752 ft 266 kts 122°
2026-05-04 09:34 -36.08271 141.89171 6756 ft 266 kts 121°
2026-05-04 09:35 -36.09091 141.91224 6754 ft 266 kts 121°
2026-05-04 09:35 -36.09900 141.93251 6749 ft 266 kts 121°
2026-05-04 09:35 -36.10720 141.95306 6751 ft 267 kts 121°
2026-05-04 09:35 -36.11541 141.97365 6749 ft 268 kts 121°
2026-05-04 09:37 -36.17294 142.11829 6745 ft 268 kts 121°
2026-05-04 09:37 -36.18114 142.13897 6746 ft 268 kts 121°
2026-05-04 09:38 -36.18934 142.15966 6748 ft 268 kts 121°
2026-05-04 09:38 -36.19753 142.18033 6744 ft 267 kts 121°
2026-05-04 09:38 -36.20572 142.20101 6744 ft 267 kts 121°
2026-05-04 09:38 -36.21391 142.22171 6742 ft 268 kts 121°
2026-05-04 09:39 -36.22209 142.24241 6739 ft 268 kts 121°
2026-05-04 09:39 -36.23027 142.26311 6738 ft 268 kts 121°
2026-05-04 09:39 -36.23845 142.28380 6741 ft 267 kts 121°
2026-05-04 09:39 -36.24660 142.30447 6741 ft 267 kts 121°
2026-05-04 09:40 -36.25477 142.32516 6739 ft 267 kts 121°
2026-05-04 09:40 -36.26293 142.34587 6738 ft 267 kts 121°
2026-05-04 09:40 -36.27108 142.36656 6740 ft 267 kts 121°
2026-05-04 09:40 -36.27923 142.38727 6740 ft 268 kts 121°
2026-05-04 09:41 -36.28739 142.40802 6731 ft 268 kts 121°
2026-05-04 09:42 -36.34447 142.55347 6730 ft 268 kts 121°
2026-05-04 09:43 -36.35261 142.57428 6730 ft 268 kts 121°
2026-05-04 09:43 -36.36076 142.59512 6732 ft 268 kts 121°
2026-05-04 09:43 -36.36890 142.61594 6730 ft 269 kts 120°
2026-05-04 09:43 -36.37705 142.63681 6728 ft 269 kts 120°
2026-05-04 09:44 -36.38519 142.65768 6728 ft 269 kts 120°
2026-05-04 09:44 -36.39336 142.67861 6724 ft 270 kts 120°
2026-05-04 09:44 -36.40151 142.69952 6730 ft 269 kts 120°
2026-05-04 09:46 -36.45854 142.84622 6732 ft 273 kts 120°
2026-05-04 09:46 -36.46677 142.86747 7860 ft 264 kts 120°
2026-05-04 09:46 -36.47487 142.88838 9097 ft 274 kts 120°
2026-05-04 09:47 -36.48041 142.90260 9877 ft 278 kts 120°
2026-05-04 09:47 -36.49176 142.93190 11293 ft 285 kts 120°
2026-05-04 09:49 -36.55217 143.08850 17194 ft 316 kts 119°
2026-05-04 09:49 -36.56172 143.11332 17953 ft 320 kts 118°
2026-05-04 09:49 -36.57138 143.13843 18647 ft 324 kts 118°
2026-05-04 09:51 -36.63148 143.29523 20994 ft 339 kts 118°
2026-05-04 09:51 -36.64156 143.32163 20984 ft 336 kts 118°
2026-05-04 09:51 -36.65155 143.34775 20564 ft 333 kts 118°
2026-05-04 09:51 -36.66141 143.37360 20244 ft 328 kts 118°
2026-05-04 09:52 -36.67117 143.39920 19929 ft 328 kts 118°
2026-05-04 09:52 -36.68098 143.42492 19617 ft 329 kts 118°
2026-05-04 09:52 -36.69080 143.45071 19335 ft 329 kts 118°
2026-05-04 09:52 -36.70059 143.47647 19046 ft 329 kts 118°
2026-05-04 09:53 -36.71036 143.50217 18764 ft 327 kts 118°
2026-05-04 09:53 -36.72008 143.52777 18481 ft 326 kts 118°
2026-05-04 09:53 -36.72976 143.55328 18181 ft 325 kts 118°
2026-05-04 09:53 -36.73938 143.57866 17854 ft 323 kts 118°
2026-05-04 09:54 -36.74896 143.60394 17534 ft 322 kts 118°
2026-05-04 09:54 -36.75835 143.62874 17212 ft 320 kts 118°
2026-05-04 09:54 -36.76781 143.65375 16899 ft 318 kts 117°
2026-05-04 09:54 -36.77722 143.67868 16589 ft 317 kts 117°
2026-05-04 09:55 -36.78672 143.70382 16276 ft 315 kts 118°
2026-05-04 09:55 -36.79591 143.72817 15972 ft 314 kts 118°
2026-05-04 09:55 -36.80519 143.75280 15662 ft 313 kts 118°
2026-05-04 09:55 -36.81442 143.77729 15366 ft 311 kts 118°
2026-05-04 09:56 -36.82360 143.80167 15058 ft 310 kts 117°
2026-05-04 09:56 -36.83290 143.82637 15012 ft 323 kts 117°
2026-05-04 09:56 -36.84270 143.85237 15009 ft 335 kts 117°
2026-05-04 09:56 -36.85256 143.87871 15007 ft 336 kts 117°
2026-05-04 09:57 -36.86248 143.90518 14989 ft 337 kts 117°
2026-05-04 09:57 -36.87242 143.93170 15010 ft 337 kts 117°
2026-05-04 09:57 -36.88235 143.95819 14987 ft 337 kts 117°
2026-05-04 09:57 -36.89226 143.98467 14990 ft 337 kts 117°
2026-05-04 09:58 -36.90218 144.01119 14990 ft 337 kts 117°
2026-05-04 09:58 -36.91208 144.03772 14990 ft 337 kts 117°
2026-05-04 09:58 -36.92199 144.06424 14990 ft 337 kts 117°
2026-05-04 10:00 -36.99075 144.24907 13941 ft 332 kts 117°
2026-05-04 10:00 -37.00044 144.27523 13414 ft 330 kts 117°
2026-05-04 10:02 -37.06628 144.45340 9894 ft 315 kts 117°
2026-05-04 10:04 -37.12863 144.62307 7993 ft 306 kts 116°
2026-05-04 10:04 -37.13752 144.64737 7991 ft 306 kts 116°
2026-05-04 10:04 -37.14640 144.67158 7990 ft 306 kts 116°
2026-05-04 10:04 -37.15511 144.69544 7972 ft 293 kts 116°
2026-05-04 10:05 -37.16433 144.71739 7968 ft 280 kts 132°
2026-05-04 10:05 -37.17904 144.73272 7990 ft 274 kts 160°
2026-05-04 10:05 -37.19696 144.73963 7985 ft 269 kts 172°
2026-05-04 10:05 -37.21521 144.74443 7984 ft 267 kts 174°
2026-05-04 10:06 -37.23345 144.74892 7989 ft 267 kts 173°
2026-05-04 10:06 -37.25168 144.75370 7983 ft 268 kts 173°
2026-05-04 10:06 -37.26988 144.75866 8036 ft 269 kts 173°
2026-05-04 10:08 -37.38011 144.78376 8026 ft 269 kts 177°
2026-05-04 10:08 -37.39855 144.78773 8022 ft 267 kts 182°
2026-05-04 10:08 -37.41619 144.78406 8030 ft 253 kts 213°
2026-05-04 10:08 -37.42919 144.77031 8036 ft 241 kts 243°
2026-05-04 10:09 -37.43556 144.75118 8028 ft 237 kts 258°
2026-05-04 10:09 -37.43941 144.73123 8023 ft 234 kts 261°
2026-05-04 10:09 -37.44269 144.71123 8019 ft 233 kts 261°
2026-05-04 10:09 -37.44586 144.69118 8023 ft 234 kts 262°
2026-05-04 10:10 -37.44899 144.67114 8020 ft 233 kts 262°
2026-05-04 10:10 -37.45213 144.65114 8021 ft 233 kts 262°
2026-05-04 10:10 -37.45533 144.63109 8016 ft 233 kts 261°
2026-05-04 10:10 -37.45847 144.61115 8020 ft 232 kts 261°
2026-05-04 10:11 -37.46158 144.59117 8023 ft 233 kts 262°
2026-05-04 10:11 -37.46470 144.57119 8021 ft 233 kts 262°
2026-05-04 10:11 -37.46783 144.55125 8024 ft 231 kts 261°
2026-05-04 10:11 -37.47093 144.53144 8023 ft 231 kts 261°
2026-05-04 10:12 -37.47402 144.51152 8026 ft 232 kts 261°
2026-05-04 10:12 -37.47707 144.49158 8020 ft 231 kts 262°
2026-05-04 10:12 -37.48011 144.47180 7775 ft 231 kts 262°
2026-05-04 10:12 -37.48610 144.45311 7559 ft 234 kts 237°
2026-05-04 10:13 -37.49796 144.43877 7327 ft 241 kts 217°
2026-05-04 10:13 -37.51376 144.43087 7049 ft 252 kts 195°
2026-05-04 10:13 -37.53153 144.43161 6805 ft 263 kts 170°
2026-05-04 10:13 -37.54810 144.44191 6537 ft 273 kts 143°
2026-05-04 10:14 -37.56153 144.45914 6256 ft 277 kts 135°
2026-05-04 10:14 -37.57410 144.47730 6167 ft 271 kts 135°
2026-05-04 10:16 -37.66114 144.59961 4741 ft 267 kts 135°
2026-05-04 10:16 -37.67349 144.61698 4418 ft 264 kts 135°
2026-05-04 10:16 -37.68577 144.63425 4058 ft 265 kts 135°
2026-05-04 10:16 -37.69806 144.65154 3711 ft 264 kts 135°
2026-05-04 10:17 -37.71025 144.66871 3396 ft 262 kts 135°
2026-05-04 10:17 -37.72239 144.68581 3061 ft 261 kts 135°
2026-05-04 10:19 -37.82731 144.74581 3017 ft 253 kts 127°
2026-05-04 10:19 -37.83594 144.76483 3041 ft 246 kts 118°
2026-05-04 10:19 -37.84250 144.78384 2992 ft 229 kts 101°
2026-05-04 10:19 -37.84233 144.80352 3022 ft 223 kts 79°
2026-05-04 10:20 -37.84417 144.82275 3010 ft 225 kts 116°
2026-05-04 10:20 -37.85422 144.83742 3019 ft 220 kts 155°
2026-05-04 10:20 -37.86827 144.84227 3037 ft 208 kts 186°
2026-05-04 10:20 -37.88273 144.84186 3021 ft 205 kts 191°
2026-05-04 10:21 -37.89687 144.84073 3010 ft 204 kts 192°
2026-05-04 10:21 -37.91105 144.83945 3013 ft 205 kts 192°
2026-05-04 10:21 -37.92528 144.83806 3005 ft 205 kts 192°
2026-05-04 10:21 -37.93942 144.83672 3000 ft 204 kts 191°
2026-05-04 10:22 -37.96780 144.83402 2999 ft 204 kts 192°
2026-05-04 10:22 -37.98197 144.83274 2994 ft 203 kts 192°
2026-05-04 10:22 -37.99614 144.83145 2982 ft 206 kts 192°
2026-05-04 10:23 -38.01039 144.83009 2992 ft 204 kts 192°
2026-05-04 10:23 -38.02343 144.82575 2969 ft 187 kts 225°
2026-05-04 10:25 -38.03400 144.72258 2992 ft 171 kts 272°
2026-05-04 10:25 -38.03437 144.70761 2990 ft 169 kts 272°
2026-05-04 10:25 -38.03477 144.69254 2989 ft 172 kts 272°
2026-05-04 10:25 -38.03517 144.67734 2992 ft 173 kts 272°
2026-05-04 10:26 -38.03556 144.66213 2999 ft 172 kts 272°
2026-05-04 10:26 -38.03595 144.64695 2997 ft 172 kts 272°
2026-05-04 10:26 -38.03634 144.63183 2995 ft 171 kts 272°
2026-05-04 10:26 -38.03450 144.61742 2995 ft 167 kts 303°
2026-05-04 10:27 -38.02515 144.60863 3011 ft 177 kts 341°
2026-05-04 10:27 -38.01255 144.61030 3006 ft 195 kts 20°
2026-05-04 10:27 -38.00186 144.62151 2998 ft 206 kts 39°
2026-05-04 10:27 -37.99226 144.63500 3000 ft 206 kts 41°
2026-05-04 10:28 -37.98283 144.64868 3010 ft 205 kts 41°
2026-05-04 10:28 -37.97347 144.66238 3002 ft 206 kts 41°
2026-05-04 10:28 -37.96407 144.67612 3007 ft 208 kts 42°
2026-05-04 10:28 -37.95460 144.68992 3001 ft 205 kts 42°
2026-05-04 10:29 -37.94537 144.70348 2993 ft 205 kts 42°
2026-05-04 10:29 -37.93594 144.71728 2989 ft 205 kts 41°
2026-05-04 10:29 -37.92670 144.73087 2977 ft 204 kts 41°
2026-05-04 10:29 -37.91746 144.74445 2983 ft 202 kts 42°
2026-05-04 10:30 -37.90824 144.75797 2992 ft 204 kts 41°
2026-05-04 10:30 -37.89895 144.77154 2995 ft 203 kts 42°
2026-05-04 10:30 -37.89028 144.78581 3006 ft 207 kts 50°
2026-05-04 10:30 -37.88259 144.80126 3003 ft 209 kts 52°
2026-05-04 10:31 -37.87506 144.81694 3003 ft 207 kts 52°
2026-05-04 10:31 -37.86768 144.83251 3003 ft 206 kts 52°
2026-05-04 10:32 -37.80966 144.86413 2781 ft 179 kts 345°
2026-05-04 10:33 -37.79748 144.86181 2534 ft 175 kts 346°
2026-05-04 10:33 -37.78547 144.85964 2298 ft 174 kts 346°
2026-05-04 10:33 -37.77356 144.85742 2079 ft 170 kts 346°
2026-05-04 10:33 -37.76226 144.85534 1846 ft 159 kts 346°
2026-05-04 10:34 -37.75164 144.85333 1620 ft 151 kts 347°
2026-05-04 10:34 -37.74127 144.85136 1460 ft 152 kts 348°
2026-05-04 10:34 -37.73102 144.84944 1264 ft 146 kts 349°
2026-05-04 10:34 -37.72079 144.84753 1084 ft 150 kts 349°
2026-05-04 10:35 -37.70699 144.84471 797 ft 147 kts 352°
2026-05-04 10:35 -37.70019 144.84347 679 ft 150 kts 353°
2026-05-04 10:35 -37.68970 144.84164 471 ft 155 kts 352°
2026-05-04 10:35 -37.67953 144.83978 364 ft 133 kts 351°
2026-05-04 10:36 -37.67145 144.83831 388 ft 100 kts 352°
2026-05-04 10:36 -37.66627 144.83740 406 ft 38 kts
2026-05-04 10:36 -37.66512 144.83863 406 ft 18 kts 86°
2026-05-04 10:36 -37.66583 144.83948 406 ft 15 kts 167°
2026-05-04 10:37 -37.66691 144.83968 402 ft 17 kts 172°
2026-05-04 10:37 -37.66818 144.83990 396 ft 20 kts 172°
2026-05-04 10:37 -37.66965 144.84016 393 ft 22 kts 171°
2026-05-04 10:37 -37.67003 144.84024 392 ft 1 kts 169°
2026-05-04 10:39 -37.67369 144.84092 381 ft 23 kts 173°
2026-05-04 10:39 -37.67539 144.84122 376 ft 26 kts 171°
2026-05-04 10:39 -37.67711 144.84156 375 ft 16 kts 171°
2026-05-04 10:40 -37.67766 144.84167 371 ft 1 kts 171°
2026-05-04 10:40 -37.67781 144.84170 373 ft 4 kts 171°
2026-05-04 10:40 -37.67787 144.84171 373 ft 0 kts 171°
2026-05-04 10:40 -37.67791 144.84172 371 ft 1 kts 171°
2026-05-04 10:41 -37.67797 144.84173 370 ft 2 kts 171°
2026-05-04 10:41 -37.67808 144.84177 369 ft 6 kts 165°
2026-05-04 10:41 -37.67844 144.84226 371 ft 9 kts 108°
2026-05-04 10:42 -37.67850 144.84313 371 ft 11 kts 86°
2026-05-04 10:42 -37.67837 144.84421 370 ft 15 kts 81°
2026-05-04 10:42 -37.67811 144.84557 375 ft 14 kts 59°
2026-05-04 10:42 -37.67760 144.84620 376 ft 7 kts 52°
2026-05-04 10:43 -37.67748 144.84651 377 ft 3 kts 71°
2026-05-04 10:44 -37.67814 144.84787 374 ft 0 kts 171°